Midlothian, TX

7:20 PM CDT on August 18, 2017 (GMT -0500)
Midlothian

Weather History for KJWY - February, 2013

Change the Weather History Date:

Tuesday, February 19, 2013

  Actual Average (KRBD) Record (KRBD)
Temperature  
Mean Temperature 48 °F -  
Max Temperature 60 °F 59 °F 77 °F (2016)
Min Temperature 35 °F 40 °F 24 °F (2006)
Degree Days  
Heating Degree Days 18    
Moisture  
Dew Point 26 °F    
Average Humidity 44    
Maximum Humidity 81    
Minimum Humidity 16    
Precipitation  
Precipitation 0.00 in - - ()
Sea Level Pressure  
Sea Level Pressure 30.23 in    
Wind  
Wind Speed 7 mph (ENE)    
Max Wind Speed 14 mph    
Max Gust Speed 18 mph    
Visibility 10 miles    
Events Rain    
Averages and records for this station are not official NWS values.
T = Trace of Precipitation, MM = Missing Value Source: NWS Daily Summary

Daily Weather History Graph

Daily Weather History Graph

Search for Another Location

Airport or City:

Trip Planner

Search our weather history database for the weather conditions in past years. The results will help you decide how hot, cold, wet, or windy it might be!

Date:

Astronomy

Feb. 19, 2013 Rise Set
Actual Time 7:06 AM CST 6:17 PM CST
Civil Twilight 6:41 AM CST 6:42 PM CST
Nautical Twilight 6:12 AM CST 7:10 PM CST
Astronomical Twilight 5:44 AM CST 7:39 PM CST
Moon 12:59 PM CST 2:28 AM CST
Length of Visible Light 12h 01m
Length of Day
11h 11m
Waxing Gibbous, 67% of the Moon is Illuminated
Feb 19
Waxing Gibbous
Feb 25
Full
Mar 4
Last Quarter
Mar 11
New
Mar 19
First Quarter

Hourly Weather History & Observations

Time (CST) Temp. Windchill Dew Point Humidity Pressure Visibility Wind Dir Wind Speed Gust Speed Precip Events Conditions
12:15 AM 48.2 °F - 30.2 °F 50% 30.15 in 10.0 mi North 10.4 mph - N/A   Clear
12:55 AM 46.4 °F 41.5 °F 28.4 °F 50% 30.15 in 10.0 mi North 10.4 mph - N/A   Clear
1:15 AM 46.4 °F 42.4 °F 30.2 °F 53% 30.16 in 10.0 mi North 8.1 mph - N/A   Clear
1:55 AM 44.6 °F 40.7 °F 30.2 °F 57% 30.16 in 10.0 mi North 6.9 mph - N/A   Clear
2:15 AM 42.8 °F 40.1 °F 30.2 °F 61% 30.16 in 10.0 mi North 4.6 mph - N/A   Clear
2:35 AM 42.8 °F 40.1 °F 28.4 °F 57% 30.15 in 10.0 mi NNE 4.6 mph - N/A   Clear
2:55 AM 42.8 °F 39.3 °F 28.4 °F 57% 30.15 in 10.0 mi NE 5.8 mph - N/A   Clear
3:15 AM 42.8 °F 38.0 °F 28.4 °F 57% 30.15 in 10.0 mi NE 8.1 mph - N/A   Clear
3:35 AM 42.8 °F 38.6 °F 28.4 °F 57% 30.15 in 10.0 mi NE 6.9 mph - N/A   Clear
3:55 AM 42.8 °F 39.3 °F 28.4 °F 57% 30.16 in 10.0 mi NNE 5.8 mph - N/A   Clear
4:15 AM 42.8 °F 40.1 °F 28.4 °F 57% 30.17 in 10.0 mi NNE 4.6 mph - N/A   Clear
4:35 AM 41.0 °F 38.0 °F 28.4 °F 61% 30.18 in 10.0 mi NNE 4.6 mph - N/A   Clear
4:55 AM 41.0 °F 38.0 °F 28.4 °F 61% 30.18 in 10.0 mi NNE 4.6 mph - N/A   Clear
5:15 AM 41.0 °F 38.0 °F 28.4 °F 61% 30.20 in 10.0 mi NNE 4.6 mph - N/A   Clear
5:35 AM 39.2 °F 35.0 °F 28.4 °F 65% 30.21 in 10.0 mi NNE 5.8 mph - N/A   Clear
5:55 AM 39.2 °F 35.9 °F 28.4 °F 65% 30.22 in 10.0 mi NE 4.6 mph - N/A   Clear
6:15 AM 41.0 °F 36.4 °F 28.4 °F 61% 30.22 in 10.0 mi NE 6.9 mph - N/A   Clear
6:35 AM 39.2 °F 34.2 °F 28.4 °F 65% 30.23 in 10.0 mi NE 6.9 mph - N/A   Clear
6:55 AM 39.2 °F 35.9 °F 28.4 °F 65% 30.25 in 10.0 mi NE 4.6 mph - N/A   Clear
7:15 AM 37.4 °F - 28.4 °F 70% 30.28 in 10.0 mi Calm Calm - N/A   Clear
7:35 AM 35.6 °F - 28.4 °F 75% 30.30 in 10.0 mi Calm Calm - N/A   Clear
7:55 AM 37.4 °F 34.9 °F 32.0 °F 81% 30.31 in 10.0 mi NE 3.5 mph - N/A   Clear
8:15 AM 41.0 °F 35.2 °F 30.2 °F 65% 30.29 in 10.0 mi NE 9.2 mph - N/A   Clear
8:35 AM 42.8 °F 41.1 °F 28.4 °F 57% 30.32 in 10.0 mi ENE 3.5 mph - N/A   Clear
9:15 AM 46.4 °F 42.4 °F 26.6 °F 46% 30.33 in 10.0 mi East 8.1 mph - N/A   Clear
9:35 AM 46.4 °F 41.5 °F 24.8 °F 43% 30.33 in 10.0 mi ENE 10.4 mph - N/A   Clear
9:55 AM 48.2 °F - 23.0 °F 37% 30.33 in 10.0 mi ENE 9.2 mph - N/A   Clear
10:15 AM 50.0 °F - 23.0 °F 35% 30.33 in 10.0 mi ENE 10.4 mph - N/A   Clear
10:35 AM 50.0 °F - 23.0 °F 35% 30.34 in 10.0 mi NE 9.2 mph - N/A   Clear
10:55 AM 51.8 °F - 23.0 °F 33% 30.34 in 10.0 mi ENE 9.2 mph - N/A   Clear
11:15 AM 51.8 °F - 23.0 °F 33% 30.34 in 10.0 mi ENE 9.2 mph - N/A   Clear
11:35 AM 53.6 °F - 23.0 °F 30% 30.33 in 10.0 mi ENE 10.4 mph - N/A   Clear
11:55 AM 53.6 °F - 21.2 °F 28% 30.33 in 10.0 mi East 11.5 mph 16.1 mph N/A   Clear
12:15 PM 55.4 °F - 23.0 °F 29% 30.32 in 10.0 mi ENE 5.8 mph - N/A   Clear
12:35 PM 55.4 °F - 21.2 °F 26% 30.31 in 10.0 mi East 10.4 mph - N/A   Clear
12:55 PM 57.2 °F - 19.4 °F 23% 30.30 in 10.0 mi ENE 9.2 mph 16.1 mph N/A   Clear
1:15 PM 55.4 °F - 21.2 °F 26% 30.28 in 10.0 mi East 6.9 mph - N/A   Clear
1:35 PM 59.0 °F - 21.2 °F 23% 30.27 in 10.0 mi ENE 8.1 mph - N/A   Clear
1:55 PM 59.0 °F - 21.2 °F 23% 30.26 in 10.0 mi ENE 9.2 mph - N/A   Clear
2:15 PM 59.0 °F - 19.4 °F 22% 30.25 in 10.0 mi East 6.9 mph 16.1 mph N/A   Clear
2:35 PM 60.8 °F - 14.0 °F 16% 30.23 in 10.0 mi ENE 12.7 mph 18.4 mph N/A   Clear
2:55 PM 60.8 °F - 17.6 °F 19% 30.23 in 10.0 mi East 9.2 mph - N/A   Clear
3:15 PM 60.8 °F - 19.4 °F 20% 30.21 in 10.0 mi ENE 13.8 mph - N/A   Clear
3:35 PM 60.8 °F - 21.2 °F 22% 30.20 in 10.0 mi East 11.5 mph - N/A   Clear
3:55 PM 59.0 °F - 21.2 °F 23% 30.19 in 10.0 mi East 9.2 mph - N/A   Clear
4:15 PM 60.8 °F - 21.2 °F 22% 30.19 in 10.0 mi East 9.2 mph - N/A   Clear
4:35 PM 59.0 °F - 19.4 °F 22% 30.19 in 10.0 mi East 9.2 mph 17.3 mph N/A   Clear
5:15 PM 59.0 °F - 21.2 °F 23% 30.19 in 10.0 mi East 8.1 mph - N/A   Clear
5:35 PM 55.4 °F - 21.2 °F 26% 30.19 in 10.0 mi East 6.9 mph - N/A   Clear
6:35 PM 51.8 °F - 23.0 °F 33% 30.19 in 10.0 mi ENE 4.6 mph - N/A   Clear
6:55 PM 51.8 °F - 23.0 °F 33% 30.19 in 10.0 mi ENE 4.6 mph - N/A   Clear
7:35 PM 51.8 °F - 24.8 °F 35% 30.18 in 10.0 mi ENE 5.8 mph - N/A   Clear
7:55 PM 51.8 °F - 23.0 °F 33% 30.18 in 10.0 mi ENE 6.9 mph - N/A   Clear
8:15 PM 51.8 °F - 23.0 °F 33% 30.18 in 10.0 mi ENE 5.8 mph - N/A   Clear
8:35 PM 51.8 °F - 23.0 °F 33% 30.19 in 10.0 mi East 4.6 mph - N/A   Mostly Cloudy
8:55 PM 51.8 °F - 23.0 °F 33% 30.20 in 10.0 mi Calm Calm - N/A   Overcast
9:15 PM 51.8 °F - 24.8 °F 35% 30.19 in 10.0 mi East 4.6 mph - N/A   Overcast
9:35 PM 50.0 °F - 30.2 °F 47% 30.20 in 10.0 mi East 3.5 mph - N/A Rain Rain
9:55 PM 48.2 °F - 32.0 °F 54% 30.19 in 10.0 mi ENE 3.5 mph - N/A Rain Rain
10:15 PM 48.2 °F - 33.8 °F 58% 30.20 in 10.0 mi ENE 3.5 mph - N/A   Light Drizzle
10:35 PM 48.2 °F - 32.0 °F 54% 30.18 in 10.0 mi ENE 5.8 mph - N/A   Overcast
10:55 PM 48.2 °F - 32.0 °F 54% 30.17 in 10.0 mi ENE 8.1 mph - N/A   Overcast
11:15 PM 48.2 °F - 32.0 °F 54% 30.17 in 10.0 mi ENE 6.9 mph - N/A   Overcast
11:35 PM 48.2 °F - 32.0 °F 54% 30.16 in 10.0 mi East 6.9 mph - N/A   Overcast
11:55 PM 48.2 °F - 32.0 °F 54% 30.17 in 10.0 mi East 6.9 mph - N/A   Overcast